Location: Atherton
(17.2661°S, 145.4859°E)
Time: 06:48:04
(UTC+10:00)

Transit 2A - All Passes

Search period start: 18 June 2025 00:00
Search period end: 28 June 2025 00:00
Orbit: 599 x 947 km, 66.7° (Epoch: 17 June)

Date Brightness Start Highest point End Pass type
(mag) Time Alt. Az. Time Alt. Az. Time Alt. Az.
18 Jun - 10:26:36 10° N 10:31:40 33° ENE 10:37:05 10° SE daylight
18 Jun - 12:10:01 10° WNW 12:14:41 24° WSW 12:19:36 10° S daylight
18 Jun - 21:09:42 10° S 21:14:06 24° ESE 21:18:09 10° ENE night (unlit)
18 Jun - 22:52:43 10° SW 22:56:56 24° WNW 23:00:50 10° NNW night (unlit)
19 Jun - 09:51:46 10° NNE 09:55:49 20° ENE 10:00:05 10° ESE daylight
19 Jun - 11:33:08 10° NW 11:38:30 39° WSW 11:44:16 10° S daylight
19 Jun - 20:34:59 10° SSE 20:37:51 14° ESE 20:40:35 10° E night (unlit)
19 Jun - 22:16:01 10° SW 22:21:05 42° WNW 22:25:40 10° N night (unlit)
20 Jun - 09:18:23 10° ENE 09:20:01 11° ENE 09:21:40 10° E daylight
20 Jun - 10:56:42 10° NNW 11:02:25 63° WSW 11:08:35 10° SSE daylight
20 Jun - 21:39:43 10° SSW 21:45:10 76° WNW 21:50:02 10° NNE night (unlit)
21 Jun - 10:20:38 10° NNW 10:26:23 81° ENE 10:32:37 10° SSE daylight
21 Jun - 21:03:45 10° SSW 21:09:10 61° ESE 21:14:00 10° NNE night (unlit)
22 Jun - 09:44:56 10° N 09:50:27 49° ENE 09:56:23 10° SE daylight
22 Jun - 11:29:57 10° W 11:33:43 17° WSW 11:37:38 10° SSW daylight
22 Jun - 20:28:05 10° S 20:33:04 35° ESE 20:37:34 10° NE night (unlit)
22 Jun - 22:12:40 10° WSW 22:15:37 15° WNW 22:18:24 10° NW night (unlit)
23 Jun - 09:09:38 10° NNE 09:14:34 29° ENE 09:19:48 10° SE daylight
23 Jun - 10:52:34 10° WNW 10:57:29 27° WSW 11:02:42 10° S daylight
23 Jun - 19:52:50 10° SSE 19:56:52 21° ESE 20:00:37 10° ENE night (unlit)
23 Jun - 21:35:23 10° SW 21:39:48 27° WNW 21:43:52 10° NNW night (unlit)
24 Jun - 08:34:59 10° NE 08:38:43 18° ENE 08:42:37 10° ESE daylight
24 Jun - 10:15:48 10° NW 10:21:21 44° WSW 10:27:16 10° S daylight
24 Jun - 19:18:30 10° SE 19:20:36 12° ESE 19:22:39 10° E night (unlit)
24 Jun - 20:58:47 10° SW 21:03:56 48° WNW 21:08:34 10° N night (unlit)
25 Jun - 09:39:28 10° NNW 09:45:16 71° WSW 09:51:31 10° SSE daylight
25 Jun - 20:22:35 10° SSW 20:27:59 87° WNW 20:32:49 10° NNE visible
26 Jun - 09:03:29 10° NNW 09:09:16 72° ENE 09:15:29 10° SSE daylight
26 Jun - 10:50:46 10° WSW 10:52:48 12° WSW 10:54:52 10° SW daylight
26 Jun - 19:46:41 10° S 19:51:58 53° ESE 19:56:41 10° NE visible
27 Jun - 08:27:52 10° N 08:33:20 43° ENE 08:39:10 10° SE daylight
27 Jun - 10:12:20 10° WNW 10:16:31 19° WSW 10:20:51 10° SSW daylight
27 Jun - 19:11:07 10° S 19:15:50 30° ESE 19:20:09 10° NE visible
27 Jun - 20:55:08 10° WSW 20:58:28 17° WNW 21:01:37 10° NW visible
